Location: Pallagorio
(39.3000°N, 16.9000°E)
Time: 18:28:47
(UTC+00:00)

Cosmos 2058 Rocket - Pass Details

Date: 24 January 2021
Orbit: 611 x 639 km, 82.5° (Epoch: 03 March)

Event Time Altitude Azimuth Distance (km) Brightness Sun altitude
Rises 17:02:29 0° 347° (NNW) 2,945 6.5 -11.5°
Reaches altitude 10° 17:04:46 10° 343° (NNW) 2,034 5.7 -11.9°
Maximum altitude 17:09:09 54° 267° (W) 780 4.0 -12.8°
Drops below altitude 10° 17:13:32 10° 190° (S) 2,021 6.0 -13.6°
Sets 17:15:48 0° 186° (S) 2,924 6.8 -14.0°
